User: anonymous   Login
Location: Unspecified
(0.0000°N, 0.0000°E)
Time: 20:23:04
(UTC+00:00)
Language:

USA 269 - Orbit

View from above orbital plane
View from above orbital plane
View from above satellite
View from above satellite

Ground track
Ground track

The orbit data is extracted from the following two-line orbital elements,

1 41724U 16047A   21127.35863136 0.00000000  00000-0  00000-0 0    07
2 41724   2.7445 344.4107 0004142  87.5638 272.5039  1.00270000    01
Epoch (UTC): 07 May 2021 08:36:25
Eccentricity: 0.0004142
inclination: 2.7445°
perigee height: 35769 km
apogee height: 35804 km
right ascension of ascending node: 344.4107°
argument of perigee: 87.5638°
revolutions per day: 1.00270000
mean anomaly at epoch: 272.5039°
orbit number at epoch: 0

The dashed part of the orbit path shows where the satellite is in the earth's shadow,  

DLR